Location: B?jaj?g
(11.7167°N, 92.6667°E)
Time: 22:39:48
(UTC+00:00)

Cosmos 1862 Rocket - Pass Details

Date: 18 September 2020
Orbit: 604 x 634 km, 82.5° (Epoch: 30 October)

Event Time Altitude Azimuth Distance (km) Brightness Sun altitude
Rises 22:56:05 0° 202° (SSW) 2,909 6.7 -11.2°
Reaches altitude 10° 22:58:30 10° 212° (SSW) 1,998 5.8 -10.6°
Maximum altitude 23:02:27 32° 275° (W) 1,074 4.3 -9.7°
Drops below altitude 10° 23:06:23 10° 339° (NNW) 1,983 6.0 -8.7°
Sets 23:08:47 0° 349° (N) 2,883 6.9 -8.1°
